Mason, MI

7:30 AM EDT on March 23, 2017 (GMT -0400)
Mason Jewett

Weather History for KTEW - April, 2013

Change the Weather History Date:

Friday, April 5, 2013

  Actual Average (KLAN) Record (KLAN)
Temperature  
Mean Temperature 39 °F -  
Max Temperature 46 °F 49 °F 82 °F (1873)
Min Temperature 31 °F 30 °F 4 °F (1868)
Degree Days  
Heating Degree Days 26    
Moisture  
Dew Point 20 °F    
Average Humidity 47    
Maximum Humidity 81    
Minimum Humidity 28    
Precipitation  
Precipitation 0.00 in - - ()
Sea Level Pressure  
Sea Level Pressure 30.09 in    
Wind  
Wind Speed 5 mph (North)    
Max Wind Speed 16 mph    
Max Gust Speed 21 mph    
Visibility 10 miles    
Events      
Averages and records for this station are not official NWS values.
T = Trace of Precipitation, MM = Missing Value Source: NWS Daily Summary

Daily Weather History Graph

Daily Weather History Graph

Search for Another Location

Airport or City:

Trip Planner

Search our weather history database for the weather conditions in past years. The results will help you decide how hot, cold, wet, or windy it might be!

Date:

Astronomy

Apr. 05, 2013 Rise Set
Actual Time 7:12 AM EDT 8:08 PM EDT
Civil Twilight 6:44 AM EDT 8:37 PM EDT
Nautical Twilight 6:10 AM EDT 9:11 PM EDT
Astronomical Twilight 5:34 AM EDT 9:47 PM EDT
Moon 4:25 AM EDT (4/5) 3:26 PM EDT (4/5)
Length of Visible Light 13h 53m
Length of Day
12h 55m
Waning Crescent, 24% of the Moon is Illuminated
Apr 5
Waning Crescent
Apr 10
New
Apr 18
First Quarter
Apr 25
Full
May 2
Last Quarter

Hourly Weather History & Observations

Time (EDT) Temp. Windchill Dew Point Humidity Pressure Visibility Wind Dir Wind Speed Gust Speed Precip Events Conditions
12:17 AM 44.2 °F - 19.8 °F 38% 29.94 in 10.0 mi Calm Calm - N/A   Overcast
12:36 AM 42.8 °F - 22.1 °F 44% 29.93 in 10.0 mi Calm Calm - N/A   Overcast
12:56 AM 42.1 °F - 21.6 °F 44% 29.93 in 10.0 mi Calm Calm - N/A   Scattered Clouds
1:15 AM 40.6 °F - 22.8 °F 49% 29.94 in 10.0 mi Calm Calm - N/A   Scattered Clouds
1:36 AM 38.8 °F - 21.2 °F 49% 29.94 in 10.0 mi Calm Calm - N/A   Mostly Cloudy
1:56 AM 41.5 °F 39.6 °F 18.5 °F 40% 29.94 in 10.0 mi WNW 3.5 mph - N/A   Overcast
2:15 AM 40.5 °F 38.4 °F 20.5 °F 45% 29.94 in 10.0 mi NW 3.5 mph - N/A   Overcast
2:36 AM 41.5 °F 35.9 °F 20.1 °F 42% 29.95 in 10.0 mi NW 9.2 mph - N/A   Mostly Cloudy
2:56 AM 40.1 °F 35.3 °F 21.4 °F 47% 29.94 in 10.0 mi NNW 6.9 mph - N/A   Scattered Clouds
3:16 AM 39.2 °F 35.0 °F 21.2 °F 49% 29.95 in 10.0 mi North 5.8 mph - N/A   Scattered Clouds
3:36 AM 40.1 °F 34.7 °F 23.7 °F 52% 29.96 in 10.0 mi North 8.1 mph - N/A   Scattered Clouds
3:56 AM 39.0 °F 34.0 °F 25.7 °F 59% 29.96 in 10.0 mi North 6.9 mph - N/A   Clear
4:15 AM 38.1 °F 33.7 °F 27.1 °F 65% 29.97 in 10.0 mi North 5.8 mph - N/A   Clear
4:36 AM 37.4 °F 31.4 °F 28.8 °F 71% 29.99 in 10.0 mi North 8.1 mph - N/A   Clear
4:56 AM 36.7 °F 30.5 °F 29.5 °F 75% 30.00 in 10.0 mi North 8.1 mph - N/A   Clear
5:15 AM 36.0 °F 31.1 °F 29.8 °F 78% 30.01 in 10.0 mi North 5.8 mph - N/A   Clear
5:36 AM 35.2 °F 28.1 °F 29.3 °F 79% 30.02 in 10.0 mi NNE 9.2 mph - N/A   Clear
5:56 AM 34.9 °F 29.0 °F 28.9 °F 79% 30.03 in 10.0 mi North 6.9 mph - N/A   Clear
6:16 AM 34.2 °F 29.0 °F 28.8 °F 81% 30.04 in 10.0 mi North 5.8 mph - N/A   Clear
6:36 AM 34.0 °F 28.8 °F 28.2 °F 79% 30.05 in 10.0 mi North 5.8 mph - N/A   Clear
6:56 AM 33.3 °F 27.9 °F 27.5 °F 79% 30.06 in 10.0 mi North 5.8 mph - N/A   Clear
7:16 AM 32.7 °F 27.3 °F 27.5 °F 81% 30.08 in 10.0 mi North 5.8 mph - N/A   Clear
7:36 AM 32.9 °F 27.5 °F 27.5 °F 81% 30.09 in 10.0 mi North 5.8 mph - N/A   Scattered Clouds
7:56 AM 33.3 °F 28.9 °F 26.8 °F 77% 30.10 in 10.0 mi North 4.6 mph - N/A   Mostly Cloudy
8:16 AM 33.3 °F 28.9 °F 26.2 °F 75% 30.11 in 10.0 mi North 4.6 mph - N/A   Mostly Cloudy
8:36 AM 34.2 °F 29.0 °F 25.5 °F 71% 30.11 in 10.0 mi North 5.8 mph - N/A   Mostly Cloudy
8:56 AM 34.9 °F 30.8 °F 24.3 °F 65% 30.12 in 10.0 mi North 4.6 mph - N/A   Mostly Cloudy
9:16 AM 36.5 °F 28.2 °F 23.2 °F 59% 30.12 in 10.0 mi North 12.7 mph - N/A   Mostly Cloudy
9:36 AM 37.4 °F 30.3 °F 20.1 °F 50% 30.13 in 10.0 mi North 10.4 mph - N/A   Mostly Cloudy
9:56 AM 37.8 °F 30.2 °F 16.3 °F 42% 30.13 in 10.0 mi NNE 11.5 mph 20.7 mph N/A   Scattered Clouds
10:16 AM 38.7 °F 30.1 °F 15.3 °F 39% 30.13 in 10.0 mi North 15.0 mph 20.7 mph N/A   Clear
10:36 AM 39.6 °F 31.0 °F 14.2 °F 36% 30.13 in 10.0 mi North 16.1 mph 19.6 mph N/A   Clear
10:56 AM 39.4 °F 31.8 °F 14.0 °F 36% 30.14 in 10.0 mi North 12.7 mph 19.6 mph N/A   Clear
11:16 AM 40.8 °F 35.6 °F 14.9 °F 35% 30.14 in 10.0 mi NNW 8.1 mph 18.4 mph N/A   Clear
11:36 AM 40.3 °F 35.5 °F 14.0 °F 34% 30.15 in 10.0 mi North 6.9 mph 16.1 mph N/A   Clear
11:57 AM 42.4 °F 37.0 °F 15.8 °F 34% 30.15 in 10.0 mi North 9.2 mph - N/A   Clear
12:16 PM 41.5 °F 34.6 °F 15.6 °F 35% 30.15 in 10.0 mi NW 12.7 mph 16.1 mph N/A   Clear
12:37 PM 41.9 °F 36.3 °F 15.4 °F 34% 30.15 in 10.0 mi NNW 9.2 mph - N/A   Clear
12:56 PM 42.1 °F 35.7 °F 15.8 °F 35% 30.15 in 10.0 mi North 11.5 mph 17.3 mph N/A   Clear
1:16 PM 42.6 °F 37.8 °F 16.2 °F 34% 30.15 in 10.0 mi NNW 8.1 mph - N/A   Clear
1:36 PM 43.9 °F 36.8 °F 17.6 °F 35% 30.14 in 10.0 mi NNW 15.0 mph 19.6 mph N/A   Clear
1:56 PM 43.9 °F 37.5 °F 17.8 °F 35% 30.14 in 10.0 mi NNW 12.7 mph 17.3 mph N/A   Clear
2:16 PM 44.1 °F 39.0 °F 17.2 °F 34% 30.14 in 10.0 mi NNW 9.2 mph 18.4 mph N/A   Clear
2:36 PM 44.6 °F 38.4 °F 16.7 °F 33% 30.13 in 10.0 mi North 12.7 mph 17.3 mph N/A   Clear
2:56 PM 45.0 °F 38.5 °F 17.6 °F 33% 30.13 in 10.0 mi North 13.8 mph 19.6 mph N/A   Clear
3:16 PM 45.5 °F 40.3 °F 17.6 °F 33% 30.13 in 10.0 mi NNW 10.4 mph 19.6 mph N/A   Clear
3:36 PM 45.3 °F 41.1 °F 17.2 °F 33% 30.12 in 10.0 mi NNE 8.1 mph 18.4 mph N/A   Clear
3:56 PM 45.7 °F 40.6 °F 18.0 °F 33% 30.11 in 10.0 mi North 10.4 mph - N/A   Clear
4:17 PM 45.9 °F 42.3 °F 17.6 °F 32% 30.11 in 10.0 mi North 6.9 mph - N/A   Clear
4:36 PM 46.4 °F 41.1 °F 17.6 °F 32% 30.11 in 10.0 mi North 11.5 mph - N/A   Clear
4:56 PM 46.0 °F 43.9 °F 16.3 °F 30% 30.10 in 10.0 mi NE 4.6 mph - N/A   Clear
5:16 PM 46.4 °F 43.5 °F 16.0 °F 30% 30.11 in 10.0 mi North 5.8 mph - N/A   Clear
5:36 PM 46.4 °F 42.4 °F 14.7 °F 28% 30.11 in 10.0 mi North 8.1 mph - N/A   Clear
5:56 PM 46.4 °F 41.9 °F 16.3 °F 30% 30.11 in 10.0 mi North 9.2 mph - N/A   Clear
6:16 PM 46.0 °F 43.9 °F 15.4 °F 29% 30.12 in 10.0 mi North 4.6 mph - N/A   Clear
6:36 PM 45.9 °F 41.2 °F 16.2 °F 30% 30.12 in 10.0 mi NNW 9.2 mph - N/A   Clear
6:56 PM 45.7 °F 43.4 °F 17.1 °F 32% 30.12 in 10.0 mi NNW 4.6 mph - N/A   Clear
7:17 PM 45.0 °F 42.6 °F 16.9 °F 32% 30.13 in 10.0 mi North 4.6 mph - N/A   Clear
7:36 PM 44.6 °F 41.4 °F 16.5 °F 32% 30.14 in 10.0 mi NNE 5.8 mph - N/A   Clear
7:56 PM 43.3 °F 40.7 °F 17.2 °F 35% 30.14 in 10.0 mi NE 4.6 mph - N/A   Clear
8:17 PM 41.7 °F 39.8 °F 16.7 °F 36% 30.15 in 10.0 mi NE 3.5 mph - N/A   Clear
8:36 PM 40.5 °F 38.4 °F 16.7 °F 38% 30.15 in 10.0 mi ENE 3.5 mph - N/A   Clear
8:56 PM 39.9 °F - 18.1 °F 42% 30.15 in 10.0 mi Calm Calm - N/A   Clear
9:17 PM 37.8 °F 35.3 °F 18.5 °F 46% 30.16 in 10.0 mi NE 3.5 mph - N/A   Clear
9:36 PM 38.1 °F 35.7 °F 17.2 °F 43% 30.16 in 10.0 mi ENE 3.5 mph - N/A   Clear
9:56 PM 36.7 °F 32.9 °F 18.1 °F 47% 30.17 in 10.0 mi NE 4.6 mph - N/A   Clear
10:16 PM 36.3 °F - 17.6 °F 47% 30.18 in 10.0 mi Calm Calm - N/A   Clear
10:36 PM 36.5 °F - 17.6 °F 46% 30.18 in 10.0 mi Calm Calm - N/A   Clear
10:56 PM 33.8 °F - 18.5 °F 54% 30.18 in 10.0 mi Calm Calm - N/A   Clear
11:17 PM 34.0 °F - 18.0 °F 52% 30.18 in 10.0 mi Calm Calm - N/A   Clear
11:36 PM 32.4 °F - 22.1 °F 66% 30.18 in 10.0 mi Calm Calm - N/A   Clear
11:57 PM 31.8 °F - 20.5 °F 63% 30.18 in 10.0 mi Calm Calm - N/A   Clear